Skip Page Navigation
NASA JPL Caltech
NASA Logo - Jet Propulsion Laboratory + View the NASA Portal
+ Center for Near-Earth Object Studies
JPL Home Earth Solar System Stars & Galaxies Technology
JPL Solar System Dynamics
BODIES ORBITS EPHEMERIDES TOOLS PHYSICAL DATA DISCOVERY FAQ SITE MAP
JPL Small-Body Database Browser
Search: [ help ]  
213696 (2002 TJ267)
Classification: Main-belt Asteroid          SPK-ID: 2213696
Ephemeris | Orbit Diagram | Orbital Elements | Mission Design | Physical Parameters | Discovery Circumstances | Close-Approach Data ]

[ show orbit diagram ]
Orbital Elements at Epoch 2459200.5 (2020-Dec-17.0) TDB
Reference: JPL 24 (heliocentric ecliptic J2000)
 Element Value Uncertainty (1-sigma)   Units 
e .2184991971118655 7.1716e-08  
a 2.663226290710022 1.7299e-08 au
q 2.08131348446267 1.9327e-07 au
i 30.01314975072107 6.5043e-06 deg
node 38.77091209889939 1.0348e-05 deg
peri 312.1672929466655 1.6054e-05 deg
M 105.1094409849171 1.05e-05 deg
tp 2458736.999980698205
(2019-Sep-10.49998070)
4.5688e-05 TDB
period 1587.488292061131
4.35
1.5467e-05
4.235e-08
d
yr
n .2267733260146381 2.2095e-09 deg/d
Q 3.245139096957373 2.1078e-08 au
  Orbit Determination Parameters
   # obs. used (total)      686  
   data-arc span      6729 days (18.42 yr)  
   first obs. used      2002-10-04  
   last obs. used      2021-03-07  
   planetary ephem.      DE441  
   SB-pert. ephem.      SB441-N16  
   condition code      0  
   norm. resid. RMS      .48001  
   source      ORB  
   producer      Otto Matic  
   solution date      2021-Apr-13 23:43:43  

Additional Information
 Earth MOID = 1.15342 au 
 Jupiter MOID = 2.392 au 
 T_jup = 3.163 
[ show covariance matrix ]

Ephemeris | Orbit Diagram | Orbital Elements | Mission Design | Physical Parameters | Discovery Circumstances | Close-Approach Data ]

Physical Parameter Table
Parameter Symbol Value Units Sigma Reference Notes
absolute magnitude H 15.39   n/a MPCxxxxx  
diameter diameter 6.074 km 0.100 urn:nasa:pds:neowise_diameters_albedos::2.0[mainbelt] (http://adsabs.harvard.edu/abs/2011ApJ...741...68M)  
geometric albedo albedo 0.040   0.007 urn:nasa:pds:neowise_diameters_albedos::2.0[mainbelt] (http://adsabs.harvard.edu/abs/2011ApJ...741...68M)  

213696 (2002 TJ267)          Discovered 2002-Oct-10 by LINEAR at Socorro
Reference: 20090509/Numbers.arcLast Updated: 2009-05-11

[ show close-approach data ]
Ephemeris | Orbit Diagram | Orbital Elements | Mission Design | Physical Parameters | Discovery Circumstances | Close-Approach Data ]
ABOUT SSD CREDITS/AWARDS PRIVACY/COPYRIGHT GLOSSARY LINKS
FirstGov 2021-May-11 17:26 UT
(server date/time)  
NASA Home Page
Site Manager:   Ryan S. Park
Webmaster  Alan B. Chamberlin